Time,TemperatureF,DewpointF,PressureIn,WindDirection,WindDirectionDegrees,WindSpeedMPH,WindSpeedGustMPH,Humidity,HourlyPrecipIn,Conditions,Clouds,dailyrainin,SoftwareType,DateUTC
2013-09-12 00:01:00,72.6,67.8,30.04,SW,232,9.2,9.2,85,0.00,CLR,,0.00,WeatherDisplay:10.37,2013-09-12 04:01:00,
2013-09-12 00:02:00,72.6,67.8,30.04,SW,225,10.0,10.0,85,0.00,CLR,,0.00,WeatherDisplay:10.37,2013-09-12 04:02:00,
2013-09-12 00:07:00,72.4,67.6,30.04,SW,219,9.2,9.2,85,0.00,CLR,,0.00,WeatherDisplay:10.37,2013-09-12 04:07:00,
2013-09-12 00:12:00,72.3,67.5,30.03,SW,229,10.0,10.0,85,0.00,CLR,,0.00,WeatherDisplay:10.37,2013-09-12 04:12:00,
2013-09-12 00:17:00,72.2,67.4,30.03,SW,230,7.0,7.0,85,0.00,CLR,,0.00,WeatherDisplay:10.37,2013-09-12 04:17:00,
2013-09-12 00:22:00,72.2,67.4,30.03,SW,229,8.1,8.1,85,0.00,CLR,,0.00,WeatherDisplay:10.37,2013-09-12 04:22:00,
2013-09-12 00:27:00,72.1,67.3,30.03,SW,228,9.0,9.0,85,0.00,CLR,,0.00,WeatherDisplay:10.37,2013-09-12 04:27:00,
2013-09-12 00:32:00,72.0,67.6,30.03,SW,234,9.0,9.0,86,0.00,CLR,,0.00,WeatherDisplay:10.37,2013-09-12 04:32:00,
2013-09-12 00:37:00,71.9,67.5,30.02,SW,229,9.0,9.0,86,0.00,CLR,,0.00,WeatherDisplay:10.37,2013-09-12 04:37:00,
2013-09-12 00:42:00,71.9,67.5,30.02,SW,215,9.2,9.2,86,0.00,CLR,,0.00,WeatherDisplay:10.37,2013-09-12 04:42:00,
2013-09-12 00:47:00,71.8,67.4,30.02,SW,219,8.1,8.1,86,0.00,CLR,,0.00,WeatherDisplay:10.37,2013-09-12 04:47:00,
2013-09-12 00:52:00,71.8,67.4,30.02,SW,227,8.1,8.1,86,0.00,CLR,,0.00,WeatherDisplay:10.37,2013-09-12 04:52:00,
2013-09-12 00:57:00,71.7,67.3,30.02,WSW,248,10.0,10.0,86,0.00,CLR,,0.00,WeatherDisplay:10.37,2013-09-12 04:57:00,
2013-09-12 01:02:00,71.6,67.2,30.02,SW,229,10.4,10.4,86,0.00,CLR,,0.00,WeatherDisplay:10.37,2013-09-12 05:02:00,
2013-09-12 01:07:00,71.6,67.2,30.02,SW,226,10.0,10.0,86,0.00,CLR,,0.00,WeatherDisplay:10.37,2013-09-12 05:07:00,
2013-09-12 01:12:00,71.6,67.2,30.02,WSW,238,9.2,9.2,86,0.00,CLR,,0.00,WeatherDisplay:10.37,2013-09-12 05:12:00,
2013-09-12 01:17:00,71.5,67.1,30.01,SW,230,10.0,10.0,86,0.00,CLR,,0.00,WeatherDisplay:10.37,2013-09-12 05:17:00,
2013-09-12 01:22:00,71.4,67.0,30.01,SW,232,10.4,10.4,86,0.00,CLR,,0.00,WeatherDisplay:10.37,2013-09-12 05:22:00,
2013-09-12 01:27:00,71.4,67.0,30.01,SW,231,11.0,11.0,86,0.00,CLR,,0.00,WeatherDisplay:10.37,2013-09-12 05:27:00,
2013-09-12 01:32:00,71.3,66.9,30.01,SSW,211,9.2,9.2,86,0.00,CLR,,0.00,WeatherDisplay:10.37,2013-09-12 05:32:00,
2013-09-12 01:37:00,71.3,66.9,30.01,WSW,238,9.2,9.2,86,0.00,CLR,,0.00,WeatherDisplay:10.37,2013-09-12 05:37:00,
2013-09-12 01:42:00,71.3,66.9,30.00,SW,231,12.0,12.0,86,0.00,CLR,,0.00,WeatherDisplay:10.37,2013-09-12 05:42:00,
2013-09-12 01:47:00,71.3,66.9,30.00,SW,225,11.0,11.0,86,0.00,CLR,,0.00,WeatherDisplay:10.37,2013-09-12 05:47:00,
2013-09-12 01:52:00,71.3,66.9,30.00,SSW,210,12.0,12.0,86,0.00,CLR,,0.00,WeatherDisplay:10.37,2013-09-12 05:52:00,
2013-09-12 01:57:00,71.2,66.8,30.00,SW,229,10.4,10.4,86,0.00,CLR,,0.00,WeatherDisplay:10.37,2013-09-12 05:57:00,
2013-09-12 02:02:00,71.2,66.8,30.00,SW,236,9.2,9.2,86,0.00,CLR,,0.00,WeatherDisplay:10.37,2013-09-12 06:02:00,
2013-09-12 02:07:00,71.3,66.9,30.00,SW,230,11.5,11.5,86,0.00,CLR,,0.00,WeatherDisplay:10.37,2013-09-12 06:07:00,
2013-09-12 02:12:00,71.2,66.8,30.00,SSW,210,10.4,10.4,86,0.00,CLR,,0.00,WeatherDisplay:10.37,2013-09-12 06:12:00,
2013-09-12 02:17:00,71.2,66.8,29.99,SW,236,8.1,8.1,86,0.00,CLR,,0.00,WeatherDisplay:10.37,2013-09-12 06:17:00,
2013-09-12 02:22:00,71.1,66.7,29.99,SW,232,9.2,9.2,86,0.00,CLR,,0.00,WeatherDisplay:10.37,2013-09-12 06:22:00,
2013-09-12 02:27:00,71.1,66.7,29.99,SW,236,8.1,8.1,86,0.00,CLR,,0.00,WeatherDisplay:10.37,2013-09-12 06:27:00,
2013-09-12 02:32:00,71.0,66.6,29.99,SW,227,7.0,7.0,86,0.00,CLR,,0.00,WeatherDisplay:10.37,2013-09-12 06:32:00,
2013-09-12 02:37:00,70.9,66.5,29.99,WSW,244,10.4,10.4,86,0.00,CLR,,0.00,WeatherDisplay:10.37,2013-09-12 06:37:00,
2013-09-12 02:42:00,70.8,66.4,29.98,SW,225,8.1,8.1,86,0.00,CLR,,0.00,WeatherDisplay:10.37,2013-09-12 06:42:00,
2013-09-12 02:47:00,70.7,66.3,29.98,SW,230,7.0,7.0,86,0.00,CLR,,0.00,WeatherDisplay:10.37,2013-09-12 06:47:00,
2013-09-12 02:52:00,70.7,66.3,29.98,SW,230,9.2,9.2,86,0.00,CLR,,0.00,WeatherDisplay:10.37,2013-09-12 06:52:00,
2013-09-12 02:57:00,70.7,66.3,29.98,SW,232,9.2,9.2,86,0.00,CLR,,0.00,WeatherDisplay:10.37,2013-09-12 06:57:00,
2013-09-12 03:02:00,70.7,66.3,29.98,SW,224,9.2,9.2,86,0.00,CLR,,0.00,WeatherDisplay:10.37,2013-09-12 07:02:00,
2013-09-12 03:07:00,70.6,66.2,29.98,SW,221,9.0,9.0,86,0.00,CLR,,0.00,WeatherDisplay:10.37,2013-09-12 07:07:00,
2013-09-12 03:12:00,70.6,66.2,29.98,SW,236,8.1,8.1,86,0.00,CLR,,0.00,WeatherDisplay:10.37,2013-09-12 07:12:00,
2013-09-12 03:17:00,70.6,66.2,29.98,SW,225,8.1,8.1,86,0.00,CLR,,0.00,WeatherDisplay:10.37,2013-09-12 07:17:00,
2013-09-12 03:22:00,70.6,66.2,29.98,SW,222,7.0,7.0,86,0.00,CLR,,0.00,WeatherDisplay:10.37,2013-09-12 07:22:00,
2013-09-12 03:27:00,70.7,66.3,29.98,SW,233,9.2,9.2,86,0.00,CLR,,0.00,WeatherDisplay:10.37,2013-09-12 07:27:00,
2013-09-12 03:32:00,70.6,66.2,29.98,SW,229,7.0,7.0,86,0.00,CLR,,0.00,WeatherDisplay:10.37,2013-09-12 07:32:00,
2013-09-12 03:37:00,70.6,66.2,29.98,SW,235,8.0,8.0,86,0.00,CLR,,0.00,WeatherDisplay:10.37,2013-09-12 07:37:00,
2013-09-12 03:42:00,70.6,66.2,29.98,SW,223,9.2,9.2,86,0.00,CLR,,0.00,WeatherDisplay:10.37,2013-09-12 07:42:00,
2013-09-12 03:47:00,70.5,66.1,29.97,SW,234,9.0,9.0,86,0.00,CLR,,0.00,WeatherDisplay:10.37,2013-09-12 07:47:00,
2013-09-12 03:52:00,70.5,66.1,29.97,SW,229,7.0,7.0,86,0.00,CLR,,0.00,WeatherDisplay:10.37,2013-09-12 07:52:00,
2013-09-12 03:57:00,70.4,66.3,29.97,SW,222,7.0,7.0,87,0.00,CLR,,0.00,WeatherDisplay:10.37,2013-09-12 07:57:00,
2013-09-12 04:02:00,70.4,66.3,29.97,SW,222,8.1,8.1,87,0.00,CLR,,0.00,WeatherDisplay:10.37,2013-09-12 08:02:00,
2013-09-12 04:07:00,70.4,66.3,29.97,WSW,238,9.2,9.2,87,0.00,CLR,,0.00,WeatherDisplay:10.37,2013-09-12 08:07:00,
2013-09-12 04:12:00,70.4,66.3,29.97,SW,235,9.0,9.0,87,0.00,CLR,,0.00,WeatherDisplay:10.37,2013-09-12 08:12:00,
2013-09-12 04:17:00,70.3,66.2,29.97,SW,232,10.4,10.4,87,0.00,CLR,,0.00,WeatherDisplay:10.37,2013-09-12 08:17:00,
2013-09-12 04:22:00,70.4,66.3,29.97,WSW,237,9.2,9.2,87,0.00,CLR,,0.00,WeatherDisplay:10.37,2013-09-12 08:22:00,
2013-09-12 04:27:00,70.4,66.3,29.97,SW,229,8.1,8.1,87,0.00,CLR,,0.00,WeatherDisplay:10.37,2013-09-12 08:27:00,
2013-09-12 04:32:00,70.3,66.2,29.97,SW,221,7.0,7.0,87,0.00,CLR,,0.00,WeatherDisplay:10.37,2013-09-12 08:32:00,
2013-09-12 04:37:00,70.4,66.3,29.97,SW,224,9.2,9.2,87,0.00,CLR,,0.00,WeatherDisplay:10.37,2013-09-12 08:37:00,
2013-09-12 04:42:00,70.3,66.2,29.97,SW,233,8.1,8.1,87,0.00,CLR,,0.00,WeatherDisplay:10.37,2013-09-12 08:42:00,
2013-09-12 04:47:00,70.3,66.2,29.96,SW,231,9.0,9.0,87,0.00,CLR,,0.00,WeatherDisplay:10.37,2013-09-12 08:47:00,
2013-09-12 04:52:00,70.4,66.3,29.96,SW,232,9.2,9.2,87,0.00,CLR,,0.00,WeatherDisplay:10.37,2013-09-12 08:52:00,
2013-09-12 04:57:00,70.4,66.3,29.96,SW,230,7.0,7.0,87,0.00,CLR,,0.00,WeatherDisplay:10.37,2013-09-12 08:57:00,
2013-09-12 05:02:00,70.3,66.2,29.97,WSW,244,4.6,4.6,87,0.00,CLR,,0.00,WeatherDisplay:10.37,2013-09-12 09:02:00,
2013-09-12 05:07:00,70.2,66.1,29.97,SW,232,6.0,6.0,87,0.00,CLR,,0.00,WeatherDisplay:10.37,2013-09-12 09:07:00,
2013-09-12 05:12:00,70.1,66.0,29.97,SW,232,6.0,6.0,87,0.00,CLR,,0.00,WeatherDisplay:10.37,2013-09-12 09:12:00,
2013-09-12 05:17:00,70.1,66.0,29.97,SW,234,4.0,4.0,87,0.00,CLR,,0.00,WeatherDisplay:10.37,2013-09-12 09:17:00,
2013-09-12 05:22:00,70.0,66.0,29.97,SW,227,4.0,4.0,87,0.00,CLR,,0.00,WeatherDisplay:10.37,2013-09-12 09:22:00,
2013-09-12 05:27:00,70.1,66.0,29.97,SW,221,4.0,4.0,87,0.00,CLR,,0.00,WeatherDisplay:10.37,2013-09-12 09:27:00,
2013-09-12 05:32:00,70.1,66.0,29.97,SSW,206,6.0,6.0,87,0.00,CLR,,0.00,WeatherDisplay:10.37,2013-09-12 09:32:00,
2013-09-12 05:37:00,70.1,66.0,29.97,SW,217,3.5,3.5,87,0.00,CLR,,0.00,WeatherDisplay:10.37,2013-09-12 09:37:00,
2013-09-12 05:42:00,70.1,66.0,29.97,SW,219,5.0,5.0,87,0.00,CLR,,0.00,WeatherDisplay:10.37,2013-09-12 09:42:00,
2013-09-12 05:47:00,70.1,66.0,29.97,SW,217,4.0,4.0,87,0.00,CLR,,0.00,WeatherDisplay:10.37,2013-09-12 09:47:00,
2013-09-12 05:52:00,70.1,66.0,29.97,SW,231,4.0,4.0,87,0.00,CLR,,0.00,WeatherDisplay:10.37,2013-09-12 09:52:00,
2013-09-12 05:57:00,70.1,66.0,29.97,SW,230,3.5,3.5,87,0.00,CLR,,0.00,WeatherDisplay:10.37,2013-09-12 09:57:00,
2013-09-12 06:02:00,70.1,66.0,29.97,SW,221,5.0,5.0,87,0.00,CLR,,0.00,WeatherDisplay:10.37,2013-09-12 10:02:00,
2013-09-12 06:07:00,70.0,66.0,29.97,SW,229,5.0,5.0,87,0.00,CLR,,0.00,WeatherDisplay:10.37,2013-09-12 10:07:00,
2013-09-12 06:12:00,70.0,66.0,29.97,WSW,244,5.0,5.0,87,0.00,CLR,,0.00,WeatherDisplay:10.37,2013-09-12 10:12:00,
2013-09-12 06:17:00,69.9,65.9,29.97,SW,224,5.0,5.0,87,0.00,CLR,,0.00,WeatherDisplay:10.37,2013-09-12 10:17:00,
2013-09-12 06:22:00,69.9,65.9,29.97,SW,232,5.8,5.8,87,0.00,CLR,,0.00,WeatherDisplay:10.37,2013-09-12 10:22:00,
2013-09-12 06:27:00,69.8,65.8,29.97,SW,227,5.0,5.0,87,0.00,CLR,,0.00,WeatherDisplay:10.37,2013-09-12 10:27:00,
2013-09-12 06:32:00,69.8,65.8,29.97,SW,221,6.0,6.0,87,0.00,CLR,,0.00,WeatherDisplay:10.37,2013-09-12 10:32:00,
2013-09-12 06:37:00,69.7,65.7,29.97,SW,228,6.0,6.0,87,0.00,CLR,,0.00,WeatherDisplay:10.37,2013-09-12 10:37:00,
2013-09-12 06:42:00,69.7,65.7,29.97,SW,225,5.0,5.0,87,0.00,CLR,,0.00,WeatherDisplay:10.37,2013-09-12 10:42:00,
2013-09-12 06:47:00,69.6,65.6,29.97,SW,232,5.0,5.0,87,0.00,CLR,,0.00,WeatherDisplay:10.37,2013-09-12 10:47:00,
2013-09-12 06:52:00,69.6,65.6,29.97,SW,217,6.0,6.0,87,0.00,CLR,,0.00,WeatherDisplay:10.37,2013-09-12 10:52:00,
2013-09-12 06:57:00,69.5,65.5,29.97,SW,236,7.0,7.0,87,0.00,CLR,,0.00,WeatherDisplay:10.37,2013-09-12 10:57:00,
2013-09-12 07:02:00,69.6,65.6,29.97,SW,227,6.0,6.0,87,0.00,CLR,,0.00,WeatherDisplay:10.37,2013-09-12 11:02:00,
2013-09-12 07:07:00,69.5,65.5,29.97,SW,218,7.0,7.0,87,0.00,CLR,,0.00,WeatherDisplay:10.37,2013-09-12 11:07:00,
2013-09-12 07:12:00,69.6,65.6,29.96,SW,230,7.0,7.0,87,0.00,CLR,,0.00,WeatherDisplay:10.37,2013-09-12 11:12:00,
2013-09-12 07:17:00,69.6,65.9,29.97,SW,224,7.0,7.0,88,0.00,CLR,,0.00,WeatherDisplay:10.37,2013-09-12 11:17:00,
2013-09-12 07:22:00,69.6,65.9,29.97,SW,236,8.0,8.0,88,0.00,CLR,,0.00,WeatherDisplay:10.37,2013-09-12 11:22:00,
2013-09-12 07:27:00,69.6,65.9,29.97,SW,229,8.0,8.0,88,0.00,CLR,,0.00,WeatherDisplay:10.37,2013-09-12 11:27:00,
2013-09-12 07:32:00,69.6,65.9,29.97,SW,236,9.0,9.0,88,0.00,CLR,,0.00,WeatherDisplay:10.37,2013-09-12 11:32:00,
2013-09-12 07:37:00,69.6,65.9,29.97,SW,224,8.1,8.1,88,0.00,CLR,,0.00,WeatherDisplay:10.37,2013-09-12 11:37:00,
2013-09-12 07:42:00,69.6,65.9,29.97,SW,232,9.0,9.0,88,0.00,CLR,,0.00,WeatherDisplay:10.37,2013-09-12 11:42:00,
2013-09-12 07:47:00,69.6,65.9,29.97,SSW,210,8.1,8.1,88,0.00,CLR,,0.00,WeatherDisplay:10.37,2013-09-12 11:47:00,
2013-09-12 07:52:00,69.8,66.1,29.96,SW,225,10.0,10.0,88,0.00,CLR,,0.00,WeatherDisplay:10.37,2013-09-12 11:52:00,
2013-09-12 07:57:00,69.8,66.1,29.96,SW,229,8.1,8.1,88,0.00,CLR,,0.00,WeatherDisplay:10.37,2013-09-12 11:57:00,
2013-09-12 08:02:00,69.9,66.2,29.97,SW,232,9.2,9.2,88,0.00,CLR,,0.00,WeatherDisplay:10.37,2013-09-12 12:02:00,
2013-09-12 08:07:00,70.0,66.3,29.97,SW,225,8.1,8.1,88,0.00,CLR,,0.00,WeatherDisplay:10.37,2013-09-12 12:07:00,
2013-09-12 08:12:00,70.1,66.4,29.97,WSW,238,8.1,8.1,88,0.00,CLR,,0.00,WeatherDisplay:10.37,2013-09-12 12:12:00,
2013-09-12 08:17:00,70.3,66.6,29.97,SW,223,9.2,9.2,88,0.00,CLR,,0.00,WeatherDisplay:10.37,2013-09-12 12:17:00,
2013-09-12 08:22:00,70.5,66.8,29.97,WSW,241,7.0,7.0,88,0.00,CLR,,0.00,WeatherDisplay:10.37,2013-09-12 12:22:00,
2013-09-12 08:27:00,70.6,66.9,29.97,WSW,243,8.1,8.1,88,0.00,CLR,,0.00,WeatherDisplay:10.37,2013-09-12 12:27:00,
2013-09-12 08:32:00,70.7,67.0,29.97,West,263,7.0,7.0,88,0.00,CLR,,0.00,WeatherDisplay:10.37,2013-09-12 12:32:00,
2013-09-12 08:37:00,70.8,67.1,29.96,WSW,250,10.4,10.4,88,0.00,CLR,,0.00,WeatherDisplay:10.37,2013-09-12 12:37:00,
2013-09-12 08:42:00,71.0,67.3,29.96,West,265,14.0,14.0,88,0.00,CLR,,0.00,WeatherDisplay:10.37,2013-09-12 12:42:00,
2013-09-12 08:47:00,71.2,67.5,29.96,SSW,207,10.4,10.4,88,0.00,CLR,,0.00,WeatherDisplay:10.37,2013-09-12 12:47:00,
2013-09-12 08:52:00,71.3,67.6,29.96,West,261,12.0,12.0,88,0.00,CLR,,0.00,WeatherDisplay:10.37,2013-09-12 12:52:00,
2013-09-12 08:57:00,71.4,67.3,29.96,WSW,237,13.0,13.0,87,0.00,CLR,,0.00,WeatherDisplay:10.37,2013-09-12 12:57:00,
2013-09-12 09:02:00,71.5,67.4,29.96,SW,231,10.4,10.4,87,0.00,CLR,,0.00,WeatherDisplay:10.37,2013-09-12 13:02:00,
2013-09-12 09:07:00,71.6,67.5,29.95,SW,230,9.2,9.2,87,0.00,CLR,,0.00,WeatherDisplay:10.37,2013-09-12 13:07:00,
2013-09-12 09:12:00,71.8,67.7,29.96,SSW,207,12.0,12.0,87,0.00,CLR,,0.00,WeatherDisplay:10.37,2013-09-12 13:12:00,
2013-09-12 09:17:00,72.1,67.7,29.96,West,260,11.5,11.5,86,0.00,CLR,,0.00,WeatherDisplay:10.37,2013-09-12 13:17:00,
2013-09-12 09:22:00,72.2,67.8,29.95,SSW,200,11.0,11.0,86,0.00,CLR,,0.00,WeatherDisplay:10.37,2013-09-12 13:22:00,
2013-09-12 09:27:00,72.4,68.0,29.95,SW,223,12.0,12.0,86,0.00,CLR,,0.00,WeatherDisplay:10.37,2013-09-12 13:27:00,
2013-09-12 09:32:00,72.6,67.8,29.95,SW,234,10.4,10.4,85,0.00,CLR,,0.00,WeatherDisplay:10.37,2013-09-12 13:32:00,
2013-09-12 09:37:00,72.9,68.1,29.95,SW,236,12.0,12.0,85,0.00,CLR,,0.00,WeatherDisplay:10.37,2013-09-12 13:37:00,
2013-09-12 09:42:00,73.1,68.0,29.95,SW,236,12.7,12.7,84,0.00,CLR,,0.00,WeatherDisplay:10.37,2013-09-12 13:42:00,
2013-09-12 09:47:00,73.4,67.9,29.95,WSW,240,12.0,12.0,83,0.00,CLR,,0.00,WeatherDisplay:10.37,2013-09-12 13:47:00,
2013-09-12 09:52:00,73.7,68.2,29.95,SW,232,12.0,12.0,83,0.00,CLR,,0.00,WeatherDisplay:10.37,2013-09-12 13:52:00,
2013-09-12 09:57:00,73.7,68.2,29.95,West,259,9.0,9.0,83,0.00,CLR,,0.00,WeatherDisplay:10.37,2013-09-12 13:57:00,
2013-09-12 10:02:00,73.9,68.1,29.95,WSW,255,9.2,9.2,82,0.00,CLR,,0.00,WeatherDisplay:10.37,2013-09-12 14:02:00,
2013-09-12 10:07:00,74.4,68.5,29.95,West,275,8.1,8.1,82,0.00,CLR,,0.00,WeatherDisplay:10.37,2013-09-12 14:07:00,
2013-09-12 10:12:00,74.7,68.5,29.95,WSW,257,12.0,12.0,81,0.00,CLR,,0.00,WeatherDisplay:10.37,2013-09-12 14:12:00,
2013-09-12 10:17:00,74.7,68.5,29.94,SSW,211,11.5,11.5,81,0.00,CLR,,0.00,WeatherDisplay:10.37,2013-09-12 14:17:00,
2013-09-12 10:22:00,74.9,67.9,29.94,West,275,11.5,11.5,79,0.00,CLR,,0.00,WeatherDisplay:10.37,2013-09-12 14:22:00,
2013-09-12 10:27:00,74.9,68.3,29.94,SW,230,12.0,12.0,80,0.00,CLR,,0.00,WeatherDisplay:10.37,2013-09-12 14:27:00,
2013-09-12 10:32:00,75.0,68.4,29.94,WSW,243,12.0,12.0,80,0.00,CLR,,0.00,WeatherDisplay:10.37,2013-09-12 14:32:00,
2013-09-12 10:37:00,75.4,68.4,29.94,SW,218,13.0,13.0,79,0.00,CLR,,0.00,WeatherDisplay:10.37,2013-09-12 14:37:00,
2013-09-12 10:42:00,75.5,68.2,29.94,SW,233,11.5,11.5,78,0.00,CLR,,0.00,WeatherDisplay:10.37,2013-09-12 14:42:00,
2013-09-12 10:47:00,75.3,68.0,29.94,West,264,12.0,12.0,78,0.00,CLR,,0.00,WeatherDisplay:10.37,2013-09-12 14:47:00,
2013-09-12 10:52:00,75.5,68.2,29.94,SSW,198,12.0,12.0,78,0.00,CLR,,0.00,WeatherDisplay:10.37,2013-09-12 14:52:00,
2013-09-12 10:57:00,75.9,68.5,29.94,WSW,254,13.0,13.0,78,0.00,CLR,,0.00,WeatherDisplay:10.37,2013-09-12 14:57:00,
2013-09-12 11:02:00,75.8,68.1,29.95,West,268,14.0,14.0,77,0.00,CLR,,0.00,WeatherDisplay:10.37,2013-09-12 15:02:00,
2013-09-12 11:07:00,75.5,68.2,29.95,West,263,7.0,7.0,78,0.00,CLR,,0.00,WeatherDisplay:10.37,2013-09-12 15:07:00,
2013-09-12 11:12:00,75.5,68.2,29.95,West,267,11.5,11.5,78,0.00,CLR,,0.00,WeatherDisplay:10.37,2013-09-12 15:12:00,
2013-09-12 11:17:00,75.3,68.0,29.95,West,261,12.0,12.0,78,0.00,CLR,,0.00,WeatherDisplay:10.37,2013-09-12 15:17:00,
2013-09-12 11:22:00,75.2,67.9,29.95,WSW,253,9.2,9.2,78,0.00,CLR,,0.00,WeatherDisplay:10.37,2013-09-12 15:22:00,
2013-09-12 11:27:00,75.1,68.1,29.94,SW,232,8.1,8.1,79,0.00,CLR,,0.00,WeatherDisplay:10.37,2013-09-12 15:27:00,
2013-09-12 11:32:00,75.3,68.0,29.94,SSW,205,11.0,11.0,78,0.00,CLR,,0.00,WeatherDisplay:10.37,2013-09-12 15:32:00,
2013-09-12 11:37:00,75.5,68.2,29.94,WSW,242,8.1,8.1,78,0.00,CLR,,0.00,WeatherDisplay:10.37,2013-09-12 15:37:00,
2013-09-12 11:42:00,75.3,68.0,29.94,WSW,239,10.0,10.0,78,0.00,CLR,,0.00,WeatherDisplay:10.37,2013-09-12 15:42:00,
2013-09-12 11:47:00,75.1,67.8,29.94,WSW,242,9.2,9.2,78,0.00,CLR,,0.00,WeatherDisplay:10.37,2013-09-12 15:47:00,
2013-09-12 11:52:00,74.8,67.8,29.94,West,267,10.4,10.4,79,0.00,CLR,,0.00,WeatherDisplay:10.37,2013-09-12 15:52:00,
2013-09-12 11:57:00,74.5,67.6,29.94,West,259,8.1,8.1,79,0.00,CLR,,0.00,WeatherDisplay:10.37,2013-09-12 15:57:00,
2013-09-12 12:02:00,74.3,67.4,29.95,WNW,284,3.5,3.5,79,0.02,RA,,0.03,WeatherDisplay:10.37,2013-09-12 16:02:00,
2013-09-12 12:07:00,72.2,65.0,29.95,North,355,4.0,4.0,78,0.10,RA,,0.10,WeatherDisplay:10.37,2013-09-12 16:07:00,
2013-09-12 12:12:00,70.6,64.1,29.96,WNW,283,9.2,9.2,80,0.16,RA,,0.16,WeatherDisplay:10.37,2013-09-12 16:12:00,
2013-09-12 12:17:00,69.1,63.0,29.95,NW,309,4.0,4.0,81,0.17,RA,,0.17,WeatherDisplay:10.37,2013-09-12 16:17:00,
2013-09-12 12:22:00,68.6,63.2,29.95,WSW,257,7.0,7.0,83,0.17,RA,,0.17,WeatherDisplay:10.37,2013-09-12 16:22:00,
2013-09-12 12:27:00,68.8,63.8,29.94,WSW,256,8.1,8.1,84,0.17,CLR,,0.17,WeatherDisplay:10.37,2013-09-12 16:27:00,
2013-09-12 12:32:00,69.3,64.3,29.95,West,264,8.1,8.1,84,0.17,CLR,,0.17,WeatherDisplay:10.37,2013-09-12 16:32:00,
2013-09-12 12:37:00,70.6,65.9,29.95,West,275,10.4,10.4,85,0.17,CLR,,0.17,WeatherDisplay:10.37,2013-09-12 16:37:00,
2013-09-12 12:42:00,71.0,65.9,29.95,WSW,246,12.0,12.0,84,0.17,CLR,,0.17,WeatherDisplay:10.37,2013-09-12 16:42:00,
2013-09-12 12:47:00,70.7,64.9,29.95,West,261,9.2,9.2,82,0.17,CLR,,0.17,WeatherDisplay:10.37,2013-09-12 16:47:00,
2013-09-12 12:52:00,70.0,64.2,29.94,SW,236,8.1,8.1,82,0.17,CLR,,0.18,WeatherDisplay:10.37,2013-09-12 16:52:00,
2013-09-12 12:57:00,69.7,64.0,29.95,SW,230,11.5,11.5,82,0.18,RA,,0.18,WeatherDisplay:10.37,2013-09-12 16:57:00,
2013-09-12 13:02:00,69.4,64.0,29.95,West,265,9.0,9.0,83,0.16,RA,,0.18,WeatherDisplay:10.37,2013-09-12 17:02:00,
2013-09-12 13:07:00,69.3,63.9,29.94,West,266,10.4,10.4,83,0.08,CLR,,0.18,WeatherDisplay:10.37,2013-09-12 17:07:00,
2013-09-12 13:12:00,69.3,63.9,29.94,West,267,10.4,10.4,83,0.02,CLR,,0.18,WeatherDisplay:10.37,2013-09-12 17:12:00,
2013-09-12 13:17:00,69.4,64.4,29.94,SW,234,9.0,9.0,84,0.01,CLR,,0.18,WeatherDisplay:10.37,2013-09-12 17:17:00,
2013-09-12 13:22:00,69.5,64.5,29.94,West,271,9.2,9.2,84,0.01,CLR,,0.18,WeatherDisplay:10.37,2013-09-12 17:22:00,
2013-09-12 13:27:00,69.4,64.4,29.93,WSW,251,4.6,4.6,84,0.01,CLR,,0.18,WeatherDisplay:10.37,2013-09-12 17:27:00,
2013-09-12 13:32:00,69.7,64.6,29.93,West,264,5.0,5.0,84,0.01,CLR,,0.18,WeatherDisplay:10.37,2013-09-12 17:32:00,
2013-09-12 13:37:00,70.0,64.9,29.93,WSW,248,5.0,5.0,84,0.01,CLR,,0.18,WeatherDisplay:10.37,2013-09-12 17:37:00,
2013-09-12 13:42:00,70.2,65.1,29.93,WSW,241,6.0,6.0,84,0.01,CLR,,0.18,WeatherDisplay:10.37,2013-09-12 17:42:00,
2013-09-12 13:47:00,70.7,65.6,29.92,SW,219,5.0,5.0,84,0.01,CLR,,0.18,WeatherDisplay:10.37,2013-09-12 17:47:00,
2013-09-12 13:52:00,70.8,65.7,29.92,WSW,256,8.1,8.1,84,0.01,CLR,,0.18,WeatherDisplay:10.37,2013-09-12 17:52:00,
2013-09-12 13:57:00,71.3,66.2,29.92,WSW,258,11.5,11.5,84,0.00,CLR,,0.18,WeatherDisplay:10.37,2013-09-12 17:57:00,
2013-09-12 14:02:00,72.1,67.0,29.91,WSW,252,10.4,10.4,84,0.00,CLR,,0.18,WeatherDisplay:10.37,2013-09-12 18:02:00,
2013-09-12 14:07:00,72.2,66.7,29.91,SW,229,11.0,11.0,83,0.00,CLR,,0.18,WeatherDisplay:10.37,2013-09-12 18:07:00,
2013-09-12 14:12:00,71.9,66.1,29.91,WSW,250,14.0,14.0,82,0.00,CLR,,0.18,WeatherDisplay:10.37,2013-09-12 18:12:00,
2013-09-12 14:17:00,71.6,65.5,29.91,WSW,242,12.0,12.0,81,0.00,CLR,,0.18,WeatherDisplay:10.37,2013-09-12 18:17:00,
2013-09-12 14:22:00,71.9,65.8,29.91,West,263,10.0,10.0,81,0.01,RA,,0.19,WeatherDisplay:10.37,2013-09-12 18:22:00,
2013-09-12 14:27:00,72.2,65.7,29.91,WSW,245,11.5,11.5,80,0.01,RA,,0.19,WeatherDisplay:10.37,2013-09-12 18:27:00,
2013-09-12 14:32:00,72.0,65.5,29.91,WSW,242,11.5,11.5,80,0.01,CLR,,0.19,WeatherDisplay:10.37,2013-09-12 18:32:00,
2013-09-12 14:37:00,71.8,65.3,29.90,SW,230,16.1,16.1,80,0.01,CLR,,0.19,WeatherDisplay:10.37,2013-09-12 18:37:00,
2013-09-12 14:42:00,72.2,65.7,29.90,SW,228,9.2,9.2,80,0.01,CLR,,0.19,WeatherDisplay:10.37,2013-09-12 18:42:00,
2013-09-12 14:47:00,72.8,66.3,29.90,WSW,258,13.0,13.0,80,0.01,CLR,,0.19,WeatherDisplay:10.37,2013-09-12 18:47:00,
2013-09-12 14:52:00,73.6,66.7,29.89,SW,233,10.4,10.4,79,0.01,CLR,,0.19,WeatherDisplay:10.37,2013-09-12 18:52:00,
2013-09-12 14:57:00,73.7,66.0,29.89,SW,234,11.5,11.5,77,0.01,CLR,,0.19,WeatherDisplay:10.37,2013-09-12 18:57:00,
2013-09-12 15:02:00,73.2,65.6,29.88,West,260,7.0,7.0,77,0.01,CLR,,0.19,WeatherDisplay:10.37,2013-09-12 19:02:00,
2013-09-12 15:07:00,73.0,65.4,29.88,West,269,6.0,6.0,77,0.01,CLR,,0.19,WeatherDisplay:10.37,2013-09-12 19:07:00,
2013-09-12 15:12:00,73.0,65.4,29.88,WSW,244,19.6,19.6,77,0.01,CLR,,0.19,WeatherDisplay:10.37,2013-09-12 19:12:00,
2013-09-12 15:17:00,72.8,64.8,29.88,WSW,243,19.6,19.6,76,0.01,CLR,,0.19,WeatherDisplay:10.37,2013-09-12 19:17:00,
2013-09-12 15:22:00,72.5,64.9,29.88,West,279,12.0,12.0,77,0.00,CLR,,0.19,WeatherDisplay:10.37,2013-09-12 19:22:00,
2013-09-12 15:27:00,72.5,65.2,29.88,SW,229,17.0,17.0,78,0.00,CLR,,0.19,WeatherDisplay:10.37,2013-09-12 19:27:00,
2013-09-12 15:32:00,72.6,65.0,29.87,West,263,14.0,14.0,77,0.00,CLR,,0.19,WeatherDisplay:10.37,2013-09-12 19:32:00,
2013-09-12 15:37:00,72.6,65.0,29.88,WSW,254,16.1,16.1,77,0.00,CLR,,0.19,WeatherDisplay:10.37,2013-09-12 19:37:00,
2013-09-12 15:42:00,72.5,64.9,29.87,WSW,256,16.1,16.1,77,0.00,CLR,,0.19,WeatherDisplay:10.37,2013-09-12 19:42:00,
2013-09-12 15:47:00,71.9,63.9,29.88,WSW,249,13.8,13.8,76,0.00,CLR,,0.19,WeatherDisplay:10.37,2013-09-12 19:47:00,
2013-09-12 15:52:00,71.7,64.1,29.87,West,263,13.8,13.8,77,0.00,CLR,,0.19,WeatherDisplay:10.37,2013-09-12 19:52:00,
2013-09-12 15:57:00,71.5,63.9,29.87,SW,232,13.0,13.0,77,0.00,CLR,,0.19,WeatherDisplay:10.37,2013-09-12 19:57:00,
2013-09-12 16:02:00,71.5,63.9,29.87,West,271,13.8,13.8,77,0.00,CLR,,0.19,WeatherDisplay:10.37,2013-09-12 20:02:00,
2013-09-12 16:07:00,71.9,64.3,29.86,West,264,8.0,8.0,77,0.00,CLR,,0.19,WeatherDisplay:10.37,2013-09-12 20:07:00,
2013-09-12 16:12:00,72.1,64.5,29.86,West,278,10.4,10.4,77,0.00,CLR,,0.19,WeatherDisplay:10.37,2013-09-12 20:12:00,
2013-09-12 16:17:00,72.0,64.4,29.86,West,271,9.2,9.2,77,0.00,CLR,,0.19,WeatherDisplay:10.37,2013-09-12 20:17:00,
2013-09-12 16:22:00,71.9,64.3,29.86,WSW,248,10.4,10.4,77,0.00,CLR,,0.19,WeatherDisplay:10.37,2013-09-12 20:22:00,
2013-09-12 16:27:00,71.9,64.7,29.86,West,271,10.0,10.0,78,0.00,CLR,,0.19,WeatherDisplay:10.37,2013-09-12 20:27:00,
2013-09-12 16:32:00,71.7,64.1,29.86,West,263,10.0,10.0,77,0.00,CLR,,0.19,WeatherDisplay:10.37,2013-09-12 20:32:00,
2013-09-12 16:37:00,71.7,64.5,29.86,WSW,257,11.5,11.5,78,0.00,CLR,,0.19,WeatherDisplay:10.37,2013-09-12 20:37:00,
2013-09-12 16:42:00,71.8,64.6,29.85,West,265,11.5,11.5,78,0.00,CLR,,0.19,WeatherDisplay:10.37,2013-09-12 20:42:00,
2013-09-12 16:47:00,72.0,65.1,29.85,WSW,253,9.2,9.2,79,0.00,CLR,,0.19,WeatherDisplay:10.37,2013-09-12 20:47:00,
2013-09-12 16:52:00,71.8,64.9,29.85,NW,309,8.1,8.1,79,0.00,CLR,,0.19,WeatherDisplay:10.37,2013-09-12 20:52:00,
2013-09-12 16:57:00,71.6,64.7,29.84,WSW,257,13.8,13.8,79,0.00,CLR,,0.19,WeatherDisplay:10.37,2013-09-12 20:57:00,
2013-09-12 17:02:00,71.5,65.0,29.84,West,264,6.9,6.9,80,0.00,CLR,,0.19,WeatherDisplay:10.37,2013-09-12 21:02:00,
2013-09-12 17:07:00,71.4,64.9,29.85,WSW,246,6.0,6.0,80,0.00,CLR,,0.19,WeatherDisplay:10.37,2013-09-12 21:07:00,
2013-09-12 17:12:00,71.4,65.3,29.84,West,273,5.0,5.0,81,0.00,CLR,,0.19,WeatherDisplay:10.37,2013-09-12 21:12:00,
2013-09-12 17:17:00,71.3,64.8,29.85,WNW,292,9.2,9.2,80,0.00,CLR,,0.19,WeatherDisplay:10.37,2013-09-12 21:17:00,
2013-09-12 17:22:00,71.2,64.7,29.85,West,268,11.5,11.5,80,0.00,CLR,,0.19,WeatherDisplay:10.37,2013-09-12 21:22:00,
2013-09-12 17:27:00,71.1,64.6,29.84,West,272,9.2,9.2,80,0.00,CLR,,0.19,WeatherDisplay:10.37,2013-09-12 21:27:00,
2013-09-12 17:32:00,71.0,64.9,29.84,West,275,11.5,11.5,81,0.00,CLR,,0.19,WeatherDisplay:10.37,2013-09-12 21:32:00,
2013-09-12 17:37:00,71.0,64.9,29.85,WSW,240,9.0,9.0,81,0.00,CLR,,0.19,WeatherDisplay:10.37,2013-09-12 21:37:00,
2013-09-12 17:42:00,70.8,64.7,29.84,West,267,9.2,9.2,81,0.00,CLR,,0.19,WeatherDisplay:10.37,2013-09-12 21:42:00,
2013-09-12 17:47:00,70.8,64.7,29.85,West,264,6.0,6.0,81,0.00,CLR,,0.19,WeatherDisplay:10.37,2013-09-12 21:47:00,
2013-09-12 17:52:00,70.8,65.0,29.85,West,273,7.0,7.0,82,0.00,CLR,,0.19,WeatherDisplay:10.37,2013-09-12 21:52:00,
2013-09-12 17:57:00,70.7,64.9,29.85,West,268,3.5,3.5,82,0.00,CLR,,0.19,WeatherDisplay:10.37,2013-09-12 21:57:00,
2013-09-12 18:02:00,70.4,64.6,29.85,West,273,3.5,3.5,82,0.00,CLR,,0.19,WeatherDisplay:10.37,2013-09-12 22:02:00,
2013-09-12 18:07:00,70.2,64.4,29.85,WNW,287,0.0,0.0,82,0.00,CLR,,0.19,WeatherDisplay:10.37,2013-09-12 22:07:00,
2013-09-12 18:12:00,69.9,64.5,29.85,WNW,296,1.2,1.2,83,0.06,RA,,0.26,WeatherDisplay:10.37,2013-09-12 22:12:00,
2013-09-12 18:17:00,69.5,64.5,29.85,SW,218,3.5,3.5,84,0.07,RA,,0.26,WeatherDisplay:10.37,2013-09-12 22:17:00,
2013-09-12 18:22:00,69.4,64.7,29.85,West,281,1.0,1.0,85,0.07,RA,,0.26,WeatherDisplay:10.37,2013-09-12 22:22:00,
2013-09-12 18:27:00,69.4,64.7,29.85,West,273,6.0,6.0,85,0.07,CLR,,0.26,WeatherDisplay:10.37,2013-09-12 22:27:00,
2013-09-12 18:32:00,69.2,64.5,29.85,NW,306,4.0,4.0,85,0.07,CLR,,0.26,WeatherDisplay:10.37,2013-09-12 22:32:00,
2013-09-12 18:37:00,69.0,64.3,29.85,West,260,6.0,6.0,85,0.07,CLR,,0.26,WeatherDisplay:10.37,2013-09-12 22:37:00,
2013-09-12 18:42:00,69.0,64.6,29.85,WSW,257,6.0,6.0,86,0.07,CLR,,0.26,WeatherDisplay:10.37,2013-09-12 22:42:00,
2013-09-12 18:47:00,69.1,64.7,29.85,West,259,6.0,6.0,86,0.07,CLR,,0.26,WeatherDisplay:10.37,2013-09-12 22:47:00,
2013-09-12 18:52:00,69.0,64.6,29.85,WSW,254,5.0,5.0,86,0.07,CLR,,0.26,WeatherDisplay:10.37,2013-09-12 22:52:00,
2013-09-12 18:57:00,69.0,64.6,29.85,West,259,3.5,3.5,86,0.07,CLR,,0.26,WeatherDisplay:10.37,2013-09-12 22:57:00,
2013-09-12 19:02:00,68.8,64.4,29.85,WSW,244,5.0,5.0,86,0.07,CLR,,0.26,WeatherDisplay:10.37,2013-09-12 23:02:00,
2013-09-12 19:07:00,68.7,64.3,29.85,WSW,252,2.3,0.0,86,0.07,CLR,,0.26,WeatherDisplay:10.37,2013-09-12 23:07:00,
2013-09-12 19:12:00,68.6,64.2,29.85,WNW,291,1.2,1.2,86,0.01,CLR,,0.26,WeatherDisplay:10.37,2013-09-12 23:12:00,
2013-09-12 19:17:00,68.5,64.1,29.84,WSW,257,4.0,4.0,86,0.00,CLR,,0.26,WeatherDisplay:10.37,2013-09-12 23:17:00,
2013-09-12 19:22:00,68.4,64.0,29.85,SW,227,3.5,3.5,86,0.00,CLR,,0.26,WeatherDisplay:10.37,2013-09-12 23:22:00,
2013-09-12 19:27:00,68.3,63.9,29.84,West,274,1.2,0.0,86,0.00,CLR,,0.26,WeatherDisplay:10.37,2013-09-12 23:27:00,
2013-09-12 19:32:00,68.1,63.8,29.85,West,272,4.0,4.0,86,0.00,CLR,,0.26,WeatherDisplay:10.37,2013-09-12 23:32:00,
2013-09-12 19:37:00,68.0,63.7,29.85,WSW,256,3.5,3.5,86,0.00,CLR,,0.26,WeatherDisplay:10.37,2013-09-12 23:37:00,
2013-09-12 19:42:00,68.0,63.7,29.85,West,261,4.0,4.0,86,0.00,CLR,,0.26,WeatherDisplay:10.37,2013-09-12 23:42:00,
2013-09-12 19:47:00,68.0,63.7,29.85,West,261,4.0,4.0,86,0.00,CLR,,0.26,WeatherDisplay:10.37,2013-09-12 23:47:00,
2013-09-12 19:52:00,67.9,63.6,29.84,West,259,5.0,5.0,86,0.00,CLR,,0.26,WeatherDisplay:10.37,2013-09-12 23:52:00,
2013-09-12 19:57:00,67.9,63.6,29.85,WSW,257,3.5,3.5,86,0.00,CLR,,0.26,WeatherDisplay:10.37,2013-09-12 23:57:00,
2013-09-12 20:02:00,67.8,63.5,29.85,WNW,291,4.6,4.6,86,0.00,CLR,,0.26,WeatherDisplay:10.37,2013-09-13 00:02:00,
2013-09-12 20:07:00,67.7,63.4,29.85,West,261,5.0,5.0,86,0.00,CLR,,0.26,WeatherDisplay:10.37,2013-09-13 00:07:00,
2013-09-12 20:12:00,67.7,63.4,29.85,West,265,6.0,6.0,86,0.00,CLR,,0.26,WeatherDisplay:10.37,2013-09-13 00:12:00,
2013-09-12 20:17:00,67.7,63.7,29.85,West,263,3.5,3.5,87,0.00,CLR,,0.26,WeatherDisplay:10.37,2013-09-13 00:17:00,
2013-09-12 20:22:00,67.6,63.3,29.86,West,264,4.0,4.0,86,0.00,CLR,,0.26,WeatherDisplay:10.37,2013-09-13 00:22:00,
2013-09-12 20:27:00,67.6,63.3,29.86,West,267,0.0,0.0,86,0.00,CLR,,0.26,WeatherDisplay:10.37,2013-09-13 00:27:00,
2013-09-12 20:32:00,67.6,63.6,29.86,NNE,19,1.2,0.0,87,0.00,CLR,,0.26,WeatherDisplay:10.37,2013-09-13 00:32:00,
2013-09-12 20:37:00,67.7,63.7,29.86,North,5,3.0,3.0,87,0.00,CLR,,0.26,WeatherDisplay:10.37,2013-09-13 00:37:00,
2013-09-12 20:42:00,67.6,63.6,29.86,North,11,5.8,5.8,87,0.00,CLR,,0.26,WeatherDisplay:10.37,2013-09-13 00:42:00,
2013-09-12 20:47:00,67.3,63.0,29.87,NNE,25,4.6,0.0,86,0.00,CLR,,0.26,WeatherDisplay:10.37,2013-09-13 00:47:00,
2013-09-12 20:52:00,67.3,63.0,29.87,North,355,3.0,3.0,86,0.00,CLR,,0.26,WeatherDisplay:10.37,2013-09-13 00:52:00,
2013-09-12 20:57:00,67.3,63.0,29.87,North,360,6.0,6.0,86,0.00,CLR,,0.26,WeatherDisplay:10.37,2013-09-13 00:57:00,
2013-09-12 21:02:00,67.2,62.9,29.87,North,5,3.5,3.5,86,0.00,CLR,,0.26,WeatherDisplay:10.37,2013-09-13 01:02:00,
2013-09-12 21:07:00,67.0,62.7,29.87,North,360,2.3,2.3,86,0.00,CLR,,0.26,WeatherDisplay:10.37,2013-09-13 01:07:00,
2013-09-12 21:12:00,66.8,62.5,29.87,North,5,0.0,0.0,86,0.00,CLR,,0.26,WeatherDisplay:10.37,2013-09-13 01:12:00,
2013-09-12 21:17:00,66.8,62.1,29.86,North,5,3.5,0.0,85,0.00,CLR,,0.26,WeatherDisplay:10.37,2013-09-13 01:17:00,
2013-09-12 21:22:00,66.7,62.0,29.87,North,360,4.0,4.0,85,0.00,CLR,,0.26,WeatherDisplay:10.37,2013-09-13 01:22:00,
2013-09-12 21:27:00,66.6,61.9,29.86,NNE,18,2.3,2.3,85,0.00,CLR,,0.26,WeatherDisplay:10.37,2013-09-13 01:27:00,
2013-09-12 21:32:00,66.5,61.8,29.86,NNE,18,4.0,4.0,85,0.00,CLR,,0.26,WeatherDisplay:10.37,2013-09-13 01:32:00,
2013-09-12 21:37:00,66.3,61.7,29.86,NNE,18,4.6,4.6,85,0.00,CLR,,0.26,WeatherDisplay:10.37,2013-09-13 01:37:00,
2013-09-12 21:42:00,66.1,61.5,29.86,NNE,13,1.2,1.2,85,0.00,CLR,,0.26,WeatherDisplay:10.37,2013-09-13 01:42:00,
2013-09-12 21:47:00,66.0,61.4,29.86,NNE,13,3.5,3.5,85,0.00,CLR,,0.26,WeatherDisplay:10.37,2013-09-13 01:47:00,
2013-09-12 21:52:00,66.0,61.4,29.86,NNE,26,5.0,5.0,85,0.00,CLR,,0.26,WeatherDisplay:10.37,2013-09-13 01:52:00,
2013-09-12 21:57:00,65.8,61.2,29.85,NNE,26,1.2,0.0,85,0.00,CLR,,0.26,WeatherDisplay:10.37,2013-09-13 01:57:00,
2013-09-12 22:02:00,65.8,61.2,29.85,NNE,26,0.0,0.0,85,0.00,CLR,,0.26,WeatherDisplay:10.37,2013-09-13 02:02:00,
2013-09-12 22:07:00,65.6,61.0,29.85,NNE,26,2.3,2.3,85,0.00,CLR,,0.26,WeatherDisplay:10.37,2013-09-13 02:07:00,
2013-09-12 22:12:00,65.5,60.9,29.85,NNE,26,0.0,0.0,85,0.00,CLR,,0.26,WeatherDisplay:10.37,2013-09-13 02:12:00,
2013-09-12 22:17:00,65.3,60.7,29.85,NNE,26,0.0,0.0,85,0.00,CLR,,0.26,WeatherDisplay:10.37,2013-09-13 02:17:00,
2013-09-12 22:22:00,65.2,60.6,29.85,NNE,26,0.0,0.0,85,0.00,CLR,,0.26,WeatherDisplay:10.37,2013-09-13 02:22:00,
2013-09-12 22:27:00,65.1,60.5,29.85,NNE,25,0.0,0.0,85,0.00,CLR,,0.26,WeatherDisplay:10.37,2013-09-13 02:27:00,
2013-09-12 22:32:00,64.8,60.2,29.84,NNE,26,0.0,0.0,85,0.00,CLR,,0.26,WeatherDisplay:10.37,2013-09-13 02:32:00,
2013-09-12 22:37:00,64.5,59.9,29.84,NNE,26,0.0,0.0,85,0.00,CLR,,0.26,WeatherDisplay:10.37,2013-09-13 02:37:00,
2013-09-12 22:42:00,64.4,60.1,29.84,NNE,26,0.0,0.0,86,0.00,CLR,,0.26,WeatherDisplay:10.37,2013-09-13 02:42:00,
2013-09-12 22:47:00,64.3,60.0,29.85,NNE,25,0.0,0.0,86,0.00,CLR,,0.26,WeatherDisplay:10.37,2013-09-13 02:47:00,
2013-09-12 22:52:00,64.3,60.0,29.85,NNE,26,0.0,0.0,86,0.00,CLR,,0.26,WeatherDisplay:10.37,2013-09-13 02:52:00,
2013-09-12 22:57:00,64.4,60.1,29.85,NNE,26,0.0,0.0,86,0.00,CLR,,0.26,WeatherDisplay:10.37,2013-09-13 02:57:00,
2013-09-12 23:02:00,64.4,60.1,29.85,NNE,25,0.0,0.0,86,0.00,CLR,,0.26,WeatherDisplay:10.37,2013-09-13 03:02:00,
2013-09-12 23:07:00,64.4,60.1,29.85,NNE,25,0.0,0.0,86,0.00,CLR,,0.26,WeatherDisplay:10.37,2013-09-13 03:07:00,
2013-09-12 23:12:00,64.4,60.1,29.86,NNE,26,0.0,0.0,86,0.00,CLR,,0.26,WeatherDisplay:10.37,2013-09-13 03:12:00,
2013-09-12 23:17:00,64.2,59.9,29.86,NNE,25,0.0,0.0,86,0.00,CLR,,0.26,WeatherDisplay:10.37,2013-09-13 03:17:00,
2013-09-12 23:22:00,64.0,59.7,29.86,NNE,26,0.0,0.0,86,0.00,CLR,,0.26,WeatherDisplay:10.37,2013-09-13 03:22:00,
2013-09-12 23:27:00,64.0,60.1,29.86,NNE,26,0.0,0.0,87,0.00,CLR,,0.26,WeatherDisplay:10.37,2013-09-13 03:27:00,
2013-09-12 23:32:00,63.9,60.0,29.86,NNE,26,0.0,0.0,87,0.00,CLR,,0.26,WeatherDisplay:10.37,2013-09-13 03:32:00,
2013-09-12 23:37:00,63.8,59.9,29.86,NNE,26,2.3,2.3,87,0.00,CLR,,0.26,WeatherDisplay:10.37,2013-09-13 03:37:00,
2013-09-12 23:42:00,63.7,59.8,29.86,NNE,25,1.2,0.0,87,0.00,CLR,,0.26,WeatherDisplay:10.37,2013-09-13 03:42:00,
2013-09-12 23:47:00,63.6,59.7,29.86,NNE,26,0.0,0.0,87,0.00,CLR,,0.26,WeatherDisplay:10.37,2013-09-13 03:47:00,
2013-09-12 23:52:00,63.4,59.5,29.86,NNE,26,0.0,0.0,87,0.00,CLR,,0.26,WeatherDisplay:10.37,2013-09-13 03:52:00,
2013-09-12 23:57:00,63.4,59.5,29.87,NNE,25,0.0,0.0,87,0.00,CLR,,0.26,WeatherDisplay:10.37,2013-09-13 03:57:00,